TimePDT,TemperatureF,Dew PointF,Humidity,Sea Level PressureIn,VisibilityMPH,Wind Direction,Wind SpeedMPH,Gust SpeedMPH,PrecipitationIn,Events,Conditions,WindDirDegrees,DateUTC
12:53 AM,50.0,39.9,68,29.91,10.0,East,10.4,-,N/A,,Clear,80,2013-04-04 07:53:00
1:53 AM,50.0,39.9,68,29.88,10.0,ENE,9.2,-,N/A,,Clear,70,2013-04-04 08:53:00
2:53 AM,48.0,39.9,74,29.86,10.0,East,8.1,-,N/A,,Clear,80,2013-04-04 09:53:00
3:53 AM,46.0,37.9,73,29.85,10.0,East,6.9,-,N/A,,Clear,90,2013-04-04 10:53:00
4:53 AM,46.9,39.9,77,29.85,10.0,West,6.9,-,N/A,,Partly Cloudy,270,2013-04-04 11:53:00
5:53 AM,48.9,41.0,74,29.81,10.0,SSW,6.9,-,N/A,,Mostly Cloudy,200,2013-04-04 12:53:00
6:53 AM,48.0,41.0,77,29.79,10.0,SE,6.9,-,N/A,,Overcast,140,2013-04-04 13:53:00
7:53 AM,50.0,42.1,74,29.79,10.0,NNE,4.6,-,N/A,,Overcast,20,2013-04-04 14:53:00
8:53 AM,54.0,42.1,64,29.75,10.0,NNE,4.6,-,N/A,,Overcast,20,2013-04-04 15:53:00
9:53 AM,55.9,43.0,62,29.75,10.0,Variable,4.6,-,N/A,,Overcast,0,2013-04-04 16:53:00
10:53 AM,55.9,43.0,62,29.77,10.0,NW,12.7,-,0.00,Rain,Light Rain,310,2013-04-04 17:53:00
11:53 AM,55.0,44.1,67,29.78,10.0,NW,9.2,-,0.00,,Overcast,310,2013-04-04 18:53:00
12:53 PM,54.0,44.1,69,29.78,10.0,North,4.6,-,N/A,,Overcast,10,2013-04-04 19:53:00
1:53 PM,55.9,46.0,69,29.76,10.0,NE,9.2,-,0.00,Rain,Light Rain,50,2013-04-04 20:53:00
2:53 PM,57.9,48.9,72,29.74,10.0,East,4.6,-,0.01,Rain,Light Rain,90,2013-04-04 21:53:00
3:53 PM,61.0,51.1,70,29.72,10.0,East,8.1,-,0.01,,Mostly Cloudy,80,2013-04-04 22:53:00
4:53 PM,64.9,48.9,56,29.68,10.0,ENE,6.9,-,N/A,,Partly Cloudy,70,2013-04-04 23:53:00
5:53 PM,64.9,48.9,56,29.64,10.0,NE,9.2,-,N/A,,Scattered Clouds,40,2013-04-05 00:53:00
6:16 PM,55.9,50.0,80,29.72,1.5,West,42.6,55.2,0.00,Rain,Light Rain,260,2013-04-05 01:16:00
6:23 PM,54.0,51.1,90,29.72,1.2,West,32.2,55.2,0.07,Rain,Rain,260,2013-04-05 01:23:00
6:25 PM,54.0,52.0,93,29.72,2.0,West,31.1,50.6,0.08,Rain,Light Rain,260,2013-04-05 01:25:00
6:32 PM,54.0,52.0,93,29.74,10.0,West,40.3,47.2,0.08,Rain,Light Rain,280,2013-04-05 01:32:00
6:53 PM,51.1,51.1,100,29.75,2.5,WNW,23.0,35.7,0.11,Rain,Heavy Rain,300,2013-04-05 01:53:00
7:05 PM,51.1,51.1,100,29.77,5.0,WNW,13.8,-,0.05,Rain,Light Rain,300,2013-04-05 02:05:00
7:53 PM,51.1,51.1,100,29.79,10.0,South,8.1,-,0.05,,Overcast,170,2013-04-05 02:53:00
8:53 PM,51.1,50.0,96,29.81,10.0,East,6.9,-,N/A,,Scattered Clouds,100,2013-04-05 03:53:00
9:53 PM,48.9,48.0,97,29.81,10.0,ESE,5.8,-,N/A,,Partly Cloudy,110,2013-04-05 04:53:00
10:53 PM,50.0,50.0,100,29.82,10.0,South,4.6,-,N/A,,Overcast,170,2013-04-05 05:53:00
11:53 PM,48.9,48.9,100,29.83,6.0,ESE,4.6,-,N/A,,Mostly Cloudy,120,2013-04-05 06:53:00